Regional Weather Roundup
Issued by NWS Midland/Odessa, TX

Skip options and go directly to product.
Home | Oldest Version | Next Version | Current Version | All | Text Only | Save Text | Print | Product List | Glossary On

Skip product version selection by date and time.   
259
ASUS44 KMAF 250401
RWRMAF
MIDLAND AREA WEATHER ROUNDUP
NATIONAL WEATHER SERVICE MIDLAND TX
1100 PM CDT FRI APR 24 2015

...IN SOUTHWEST TEXAS AND SOUTHEAST NEW MEXICO...

CITY           SKY/WX    TMP DP  RH WIND       PRES   REMARKS
ALPINE         CLEAR     53  34  49 W8        30.02R
ANDREWS        FAIR      63  25  23 W12       29.85R
ARTESIA        CLEAR     59  27  29 SW13      29.87R
BIG SPRING     CLEAR     66  26  22 W9        29.82R
CARLSBAD       CLEAR     55  27  34 W6        29.86R
DRYDEN           N/A     71  65  81 CALM      29.83R
FORT STOCKTON  CLEAR     64  27  24 W8        29.88R
GUAD PASS      NOT AVBL
HOBBS          CLEAR     59  25  27 SW13      29.88R
MARFA          CLEAR     55  28  35 NW12      30.00R
MIDLAND AIRPK  CLEAR     69  27  20 W13       29.83R
MIDLAND INTL   CLEAR     67  29  24 W14       29.82R
ODESSA         CLEAR     67  25  20 W21       29.84R
PECOS          CLEAR     64  26  24 W8        29.85R
PRESIDIO       FAIR      72  20  13 N12       29.87R
SEMINOLE       CLEAR     60  27  28 W8        29.85R
SNYDER         CLEAR     61  38  43 W10       29.79R
WINK           CLEAR     70  18  13 W18       29.84R
$$
...OTHER STATIONS IN TEXAS...

CITY           SKY/WX    TMP DP  RH WIND       PRES   REMARKS
ABILENE        CLEAR     65  60  84 S9        29.76R
AMARILLO       CLEAR     62  25  24 W23G31    29.69R
AUSTIN         CLOUDY    76  73  91 S14       29.73S
BROWNSVILLE    CLOUDY    78  75  90 SW6       29.76R
CORPUS CHRISTI CLOUDY    77  75  93 SE6       29.77R THUNDER FOG
DALLAS FTW     MOCLDY    60  60 100 SE3       29.69R
DEL RIO        MOCLDY    73  71  93 SE5       29.74R
EL PASO        PTCLDY    66  27  23 W10       29.94R
HOUSTON INT    CLOUDY    78  74  87 SW8       29.76R
LUBBOCK        CLEAR     60  29  30 W15       29.78R
SAN ANGELO     PTCLDY    63  55  75 SW5       29.80R
SAN ANTONIO    CLOUDY    78  74  87 S5        29.77R
WACO           CLOUDY    69  62  78 SW10      29.73R
WICHITA FALLS  NOT AVBL
$$
...OTHER LOCATIONS IN NEW MEXICO...

CITY           SKY/WX    TMP DP  RH WIND       PRES   REMARKS
ALAMAGORDO     PTCLDY    59  28  31 SW9       29.96R
ALBUQUERQUE    PTCLDY    54  33  45 W7        29.95R
CANNON AFB     NOT AVBL
CLOVIS         PTCLDY    57  27  30 W18       29.81R
HOLLOMAN AFB   NOT AVBL
ROSWELL        CLEAR     50  34  54 S5        29.85R
RUIDOSO        CLEAR     48  23  37 SW17      29.98R
SANTA FE       LGT RAIN  49  28  44 NW9G25    29.95R
TRUTH OR CONSE   N/A     57  27  31 W6        29.96R
TUCUMCARI      CLEAR     60  24  25 W17       29.76R
$$

USA.gov is the U.S. government's official web portal to all federal, state and local government web resources and services.